User: anonymous   Login
Location: Campillo
(40.8621°N, 4.2488°W)
Time: 16:22:07
(UTC+00:00)
Language:

Resurs 01 Rocket - Orbit

View from above orbital plane
View from above orbital plane
View from above satellite
View from above satellite

Ground track
Ground track

The orbit data is extracted from the following two-line orbital elements,

1 23343U 94074B   21215.72639763  .00000020  00000-0  10044-4 0  9998
2 23343  97.9427 269.6300 0005470 260.1052 212.6402 14.76892444439476
Epoch (UTC): 03 August 2021 17:26:00
Eccentricity: 0.0005470
inclination: 97.9427°
perigee height: 635 km
apogee height: 643 km
right ascension of ascending node: 269.6300°
argument of perigee: 260.1052°
revolutions per day: 14.76892444
mean anomaly at epoch: 212.6402°
orbit number at epoch: 43947

The dashed part of the orbit path shows where the satellite is in the earth's shadow,  

DLR